(G96) Mt. Lemmon Survey  (N32.442751 W110.788720)  US/Arizona.  Observers T.
   A. Pruyne, B. M. Africano, E. J. Christensen, G. A. Farneth, D. C. Fuls,
   A. R. Gibbs, A. D. Grauer, H. Gröller, J. A. Johnson, R. A. Kowalski, S.
   M. Larson, G. J. Leonard, D. Rankin, R. L. Seaman, F. C. Shelly, K. W.
   Wierzchoś. 1.5-m reflector + 10K CCD.

Orbital elements:  P11BXNA
   Perihelion 2022 Feb 2.92434 +/- 0.00103 TT = 22:11:03 (JD 2459613.42434)
Epoch 2022 Nov 24.0 TT = JDT 2459907.5   Ju: 0.2926   Sa: 0.5590
M   9.41321860 +/- 0.00019          (J2000 ecliptic)          AutoNEOCP
n   0.03200951 +/- 7.6e-7           Peri.  253.28693 +/- 0.00013
a   9.82388654 +/- 0.000155         Node   126.26753 +/- 0.000029
e   0.5780590 +/- 6.32e-6           Incl.   23.04791 +/- 0.000015
P  30.79                   H 15.2   G  0.15   U  3.3
q 4.14509954 +/- 3.63e-6    Q 15.5026735 +/- 0.000307
From 111 observations 2020 June 15-2022 Nov. 24; mean residual 0".15
Residuals in arcseconds: 
200615 F51  .06-  .03-    200822 F51  .10+  .03+    211106 F51  .08+  .02-    
200615 F51  .02-  .05+    200907 F51  .17-  .31-    211106 F51  .03-  .06-    
200615 F51  .04-  .03-    200907 F51  .35-  .04-    211106 F51  .08+  .03-    
200621 F52  .06-  .19-    200907 F51  .01-  .03+    211106 F51  .06-  .11+    
200627 F51  .17-  .05-    200907 F51  .13+  .23-    211119 F51  .16-  .28-    
200627 F51  .03+  .01+    200912 F52  .27+  .30+    220910 F52  .05-  .21+    
200627 F51  .16+  .33+    200912 F52  .17-  .14-    220924 F52  .04-  .04+    
200627 F51  .23+  .20+    200912 F52  .14-  .16+    220929 F52  .10-  .01-    
200718 F51  .09+  .14-    200912 F52  .11-  .26+    220929 F52  .02+  .04-    
200718 F51  .08-  .01-    200916 F51  .12+  .11-    220929 F52  .06-  .06-    
200718 F51  .26-  .19+    200916 F51  .09+  .11+    220929 F52  .02-  .06+    
200718 F51  .14+  .05-    200916 F51  .09-  .01+    221004 F51  .02-  .16-    
200722 F51  .02+  .03-    201008 F51  .35+  .25-    221004 F51  .08-  .11-    
200722 F51  .15+  .02-    210706 F51  .13-  .00     221004 F51  .17-  .01+    
200722 F51  .12-  .15+    210706 F51  .20-  .01+    221004 F51  .03+  .08-    
200722 F51  .09+  .06-    210706 F51  .25-  .04+    221017 F51  .05+  .09+    
200722 F51  .00   .21+    210802 F51  .22-  .17+    221017 F51  .08-  .11-    
200722 F51  .13+  .08-    210802 F51  .08+  .38-    221017 F51  .07-  .01-    
200728 F51  .20-  .27+    210802 F51  .12+  .40+    221017 F51  .02-  .13+    
200729 F51  .25+  .07+    210802 F51  .22+  .08+    221029 G96  .17-  .44+    
200729 F51  .20+  .13-    210810 F51  .04-  .08-    221029 G96  .70+  .07+    
200810 F51  .02+  .00     210810 F51  .14-  .07+    221029 G96  .28+  .23+    
200810 F51  .16-  .17-    210810 F51  .03+  .06+    221029 G96  .09-  .08-    
200810 F51  .08-  .22-    210810 F51  .22+  .10+    221029 F51  .00   .22+    
200810 F51  .07-  .08-    210907 F51  .01+  .03+    221029 F51  .08-  .11-    
200810 F51  .01+  .41-    210907 F51  .00   .07-    221029 F51  .10+  .07-    
200810 F51  .21-  .29+    210907 F51  .06+  .01-    221029 F51  .20-  .06+    
200810 F51  .04-  .01-    210907 F51  .14-  .08+    221102 F52  .13+  .13+    
200815 F51  .06-  .01-    210924 F52  .08+  .02-    221123 F51  .11-  .02+    
200815 F51  .01-  .10-    211027 F51  .05+  .18-    221123 F51  .12-  .00     
200815 F51  .10-  .02+    211027 F51  .05+  .10-    221123 F51  .04-  .16+    
200817 F51  .05+  .03-    211027 F51  .00   .00     221123 F51  .01-  .11+    
200817 F51  .04-  .03-    211027 F51  .03+  .00     221123 F51  .13-  .31-    
200817 F51  .04+  .19+    211101 F52  .09+  .02-    221123 F51  .06+  .04-    
200822 F51  .07-  .02-    211101 F52  .10+  .11+    221124 807  .05+  .22-    
200822 F51  .08+  .10-    211101 F52  .04+  .06+    221124 807  .02-  .34-    
200822 F51  .05-  .03+    211101 F52  .00   .15+    221124 807  .07+  .27-    

Ephemerides (geocentric):
Date (UTC) HH   RA             Dec           delta  r     elong  mag " sig PA
---- --------  ------------   ------------  ------ ------ -----  --- --------
2022 11 25 07  04 19 40.240   -05 30 10.74  3.6429 4.5475 153.5 21.7 .027  46
2022 11 25 08  04 19 38.955   -05 30 09.46  3.6430 4.5477 153.5 21.7 .027  46
2022 11 25 09  04 19 37.671   -05 30 08.16  3.6431 4.5478 153.5 21.7 .027  46
2022 11 25 10  04 19 36.386   -05 30 06.85  3.6432 4.5479 153.5 21.7 .027  46
2022 11 25 11  04 19 35.101   -05 30 05.52  3.6433 4.5480 153.5 21.7 .028  46
2022 11 25 12  04 19 33.816   -05 30 04.18  3.6434 4.5481 153.5 21.7 .028  46
2022 11 25 13  04 19 32.531   -05 30 02.83  3.6436 4.5482 153.5 21.7 .028  47
2022 11 25 14  04 19 31.246   -05 30 01.47  3.6437 4.5483 153.5 21.7 .028  47
2022 11 25 15  04 19 29.961   -05 30 00.09  3.6438 4.5484 153.5 21.7 .028  47
2022 11 25 16  04 19 28.676   -05 29 58.70  3.6439 4.5485 153.5 21.7 .028  47
2022 11 25 17  04 19 27.391   -05 29 57.29  3.6440 4.5486 153.5 21.7 .028  47
2022 11 25 18  04 19 26.106   -05 29 55.87  3.6441 4.5487 153.5 21.7 .028  47
2022 11 25 19  04 19 24.820   -05 29 54.44  3.6443 4.5488 153.5 21.7 .028  47
2022 11 25 20  04 19 23.535   -05 29 53.00  3.6444 4.5489 153.5 21.7 .028  47
2022 11 25 21  04 19 22.250   -05 29 51.54  3.6445 4.5490 153.5 21.7 .028  47
2022 11 25 22  04 19 20.965   -05 29 50.07  3.6446 4.5491 153.5 21.7 .028  47
2022 11 25 23  04 19 19.679   -05 29 48.59  3.6447 4.5492 153.5 21.7 .028  47
2022 11 26 00  04 19 18.394   -05 29 47.09  3.6449 4.5493 153.5 21.7 .028  47
2022 11 26 01  04 19 17.109   -05 29 45.58  3.6450 4.5494 153.5 21.7 .028  47
2022 11 26 02  04 19 15.823   -05 29 44.06  3.6451 4.5496 153.5 21.7 .028  47
2022 11 26 03  04 19 14.538   -05 29 42.52  3.6452 4.5497 153.5 21.7 .028  48
2022 11 26 04  04 19 13.252   -05 29 40.97  3.6454 4.5498 153.4 21.7 .028  48
2022 11 26 05  04 19 11.967   -05 29 39.41  3.6455 4.5499 153.4 21.7 .028  48
2022 11 26 06  04 19 10.682   -05 29 37.83  3.6456 4.5500 153.4 21.7 .028  48
2022 11 26 07  04 19 09.396   -05 29 36.24  3.6457 4.5501 153.4 21.7 .028  48
2022 11 26 08  04 19 08.111   -05 29 34.64  3.6459 4.5502 153.4 21.7 .028  48
2022 11 26 09  04 19 06.825   -05 29 33.02  3.6460 4.5503 153.4 21.7 .028  48
2022 11 26 10  04 19 05.540   -05 29 31.39  3.6461 4.5504 153.4 21.7 .028  48
2022 11 26 11  04 19 04.255   -05 29 29.75  3.6462 4.5505 153.4 21.7 .029  48
2022 11 26 12  04 19 02.969   -05 29 28.09  3.6464 4.5506 153.4 21.7 .029  48
2022 11 26 13  04 19 01.684   -05 29 26.42  3.6465 4.5507 153.4 21.7 .029  48
2022 11 26 14  04 19 00.398   -05 29 24.74  3.6466 4.5508 153.4 21.7 .029  48
2022 11 26 15  04 18 59.113   -05 29 23.04  3.6467 4.5509 153.4 21.7 .029  48
2022 11 26 16  04 18 57.827   -05 29 21.33  3.6469 4.5510 153.4 21.7 .029  48
2022 11 26 17  04 18 56.542   -05 29 19.61  3.6470 4.5511 153.4 21.7 .029  48
2022 11 26 18  04 18 55.257   -05 29 17.87  3.6471 4.5512 153.4 21.7 .029  49
2022 11 26 19  04 18 53.971   -05 29 16.12  3.6473 4.5514 153.4 21.7 .029  49
2022 11 26 20  04 18 52.686   -05 29 14.36  3.6474 4.5515 153.4 21.7 .029  49
2022 11 26 21  04 18 51.401   -05 29 12.59  3.6475 4.5516 153.4 21.7 .029  49
2022 11 26 22  04 18 50.115   -05 29 10.80  3.6477 4.5517 153.4 21.7 .029  49
2022 11 26 23  04 18 48.830   -05 29 08.99  3.6478 4.5518 153.4 21.7 .029  49
2022 11 27 00  04 18 47.545   -05 29 07.18  3.6479 4.5519 153.4 21.7 .029  49
2022 11 27 01  04 18 46.260   -05 29 05.35  3.6481 4.5520 153.4 21.7 .029  49
2022 11 27 02  04 18 44.975   -05 29 03.51  3.6482 4.5521 153.4 21.7 .029  49
2022 11 27 03  04 18 43.689   -05 29 01.65  3.6483 4.5522 153.4 21.7 .029  49
2022 11 27 04  04 18 42.404   -05 28 59.78  3.6485 4.5523 153.4 21.7 .029  49
2022 11 27 05  04 18 41.119   -05 28 57.90  3.6486 4.5524 153.4 21.7 .029  49
2022 11 27 06  04 18 39.834   -05 28 56.00  3.6487 4.5525 153.4 21.7 .029  49